Time,TemperatureF,DewpointF,PressureIn,WindDirection,WindDirectionDegrees,WindSpeedMPH,WindSpeedGustMPH,Humidity,HourlyPrecipIn,Conditions,Clouds,dailyrainin,SoftwareType,DateUTC
2013-07-19 00:02:00,53.0,42.7,29.97,WSW,247,2.0,15.0,68,0.00,,,0.00,Weather View 32 v70,2013-07-19 07:02:00,
2013-07-19 00:06:00,53.0,42.7,29.97,WSW,247,0.0,15.0,68,0.00,,,0.00,Weather View 32 v70,2013-07-19 07:06:00,
2013-07-19 00:11:00,54.0,44.0,29.97,WSW,247,0.0,15.0,69,0.00,,,0.00,Weather View 32 v70,2013-07-19 07:11:00,
2013-07-19 00:16:00,54.0,43.7,29.97,WSW,247,4.0,14.0,68,0.00,,,0.00,Weather View 32 v70,2013-07-19 07:16:00,
2013-07-19 00:21:00,54.0,43.7,29.97,WSW,247,0.0,14.0,68,0.00,,,0.00,Weather View 32 v70,2013-07-19 07:21:00,
2013-07-19 00:26:00,54.0,43.7,29.96,WSW,247,0.0,14.0,68,0.00,,,0.00,Weather View 32 v70,2013-07-19 07:26:00,
2013-07-19 00:31:00,53.0,42.7,29.96,WSW,247,0.0,14.0,68,0.00,,,0.00,Weather View 32 v70,2013-07-19 07:31:00,
2013-07-19 00:36:00,54.0,43.7,29.97,WSW,247,1.0,14.0,68,0.00,,,0.00,Weather View 32 v70,2013-07-19 07:36:00,
2013-07-19 00:41:00,53.0,42.7,29.96,WSW,247,6.0,14.0,68,0.00,,,0.00,Weather View 32 v70,2013-07-19 07:41:00,
2013-07-19 00:46:00,53.0,42.7,29.96,WSW,247,4.0,14.0,68,0.00,,,0.00,Weather View 32 v70,2013-07-19 07:46:00,
2013-07-19 00:51:00,53.0,42.7,29.96,WSW,247,0.0,14.0,68,0.00,,,0.00,Weather View 32 v70,2013-07-19 07:51:00,
2013-07-19 00:56:00,53.0,42.7,29.96,WSW,247,6.0,14.0,68,0.00,,,0.00,Weather View 32 v70,2013-07-19 07:56:00,
2013-07-19 01:01:00,54.0,44.0,29.96,WSW,247,4.0,14.0,69,0.00,,,0.00,Weather View 32 v70,2013-07-19 08:01:00,
2013-07-19 01:02:00,54.0,44.0,29.96,WSW,247,4.0,14.0,69,0.00,,,0.00,Weather View 32 v70,2013-07-19 08:02:00,
2013-07-19 01:06:00,53.0,42.7,29.96,WSW,247,7.0,14.0,68,0.00,,,0.00,Weather View 32 v70,2013-07-19 08:06:00,
2013-07-19 01:11:00,53.0,42.7,29.96,WSW,247,0.0,14.0,68,0.00,,,0.00,Weather View 32 v70,2013-07-19 08:11:00,
2013-07-19 01:16:00,53.0,42.7,29.96,WSW,247,6.0,14.0,68,0.00,,,0.00,Weather View 32 v70,2013-07-19 08:16:00,
2013-07-19 01:26:00,53.0,42.7,29.95,WSW,247,3.0,14.0,68,0.00,,,0.00,Weather View 32 v70,2013-07-19 08:26:00,
2013-07-19 01:36:00,54.0,44.0,29.95,WSW,247,11.0,14.0,69,0.00,,,0.00,Weather View 32 v70,2013-07-19 08:36:00,
2013-07-19 01:41:00,53.0,42.7,29.95,WSW,247,3.0,14.0,68,0.00,,,0.00,Weather View 32 v70,2013-07-19 08:41:00,
2013-07-19 01:46:00,53.0,42.7,29.95,WSW,247,0.0,14.0,68,0.00,,,0.00,Weather View 32 v70,2013-07-19 08:46:00,
2013-07-19 01:51:00,53.0,42.7,29.95,WSW,247,3.0,14.0,68,0.00,,,0.00,Weather View 32 v70,2013-07-19 08:51:00,
2013-07-19 01:56:00,53.0,42.7,29.95,WSW,247,2.0,14.0,68,0.00,,,0.00,Weather View 32 v70,2013-07-19 08:56:00,
2013-07-19 02:01:00,53.0,42.7,29.95,WSW,247,4.0,14.0,68,0.00,,,0.00,Weather View 32 v70,2013-07-19 09:01:00,
2013-07-19 02:06:00,53.0,42.7,29.95,WSW,247,3.0,14.0,68,0.00,,,0.00,Weather View 32 v70,2013-07-19 09:06:00,
2013-07-19 02:11:00,53.0,43.1,29.95,WSW,247,4.0,14.0,69,0.00,,,0.00,Weather View 32 v70,2013-07-19 09:11:00,
2013-07-19 02:16:00,53.0,43.1,29.95,WSW,247,5.0,14.0,69,0.00,,,0.00,Weather View 32 v70,2013-07-19 09:16:00,
2013-07-19 02:21:00,53.0,43.1,29.94,WSW,247,0.0,14.0,69,0.00,,,0.00,Weather View 32 v70,2013-07-19 09:21:00,
2013-07-19 02:26:00,53.0,43.1,29.94,WSW,247,7.0,14.0,69,0.00,,,0.00,Weather View 32 v70,2013-07-19 09:26:00,
2013-07-19 02:31:00,53.0,43.1,29.94,WSW,247,4.0,14.0,69,0.00,,,0.00,Weather View 32 v70,2013-07-19 09:31:00,
2013-07-19 02:36:00,53.0,43.1,29.94,WSW,247,0.0,14.0,69,0.00,,,0.00,Weather View 32 v70,2013-07-19 09:36:00,
2013-07-19 02:42:00,53.0,43.1,29.94,WSW,247,8.0,14.0,69,0.00,,,0.00,Weather View 32 v70,2013-07-19 09:42:00,
2013-07-19 02:47:00,53.0,43.1,29.94,WSW,247,6.0,13.0,69,0.00,,,0.00,Weather View 32 v70,2013-07-19 09:47:00,
2013-07-19 02:52:00,53.0,43.1,29.94,WSW,247,0.0,13.0,69,0.00,,,0.00,Weather View 32 v70,2013-07-19 09:52:00,
2013-07-19 02:57:00,53.0,43.1,29.94,WSW,247,3.0,14.0,69,0.00,,,0.00,Weather View 32 v70,2013-07-19 09:57:00,
2013-07-19 03:01:00,53.0,43.1,29.94,WSW,247,1.0,14.0,69,0.00,,,0.00,Weather View 32 v70,2013-07-19 10:01:00,
2013-07-19 03:04:00,53.0,43.1,29.94,WSW,247,1.0,14.0,69,0.00,,,0.00,Weather View 32 v70,2013-07-19 10:04:00,
2013-07-19 03:11:00,53.0,43.1,29.94,WSW,247,0.0,14.0,69,0.00,,,0.00,Weather View 32 v70,2013-07-19 10:11:00,
2013-07-19 03:16:00,53.0,43.1,29.94,WSW,247,3.0,14.0,69,0.00,,,0.00,Weather View 32 v70,2013-07-19 10:16:00,
2013-07-19 03:21:00,53.0,43.1,29.93,WSW,247,6.0,14.0,69,0.00,,,0.00,Weather View 32 v70,2013-07-19 10:21:00,
2013-07-19 03:26:00,53.0,43.1,29.93,WSW,247,1.0,14.0,69,0.00,,,0.00,Weather View 32 v70,2013-07-19 10:26:00,
2013-07-19 03:31:00,53.0,43.1,29.94,WSW,247,0.0,14.0,69,0.00,,,0.00,Weather View 32 v70,2013-07-19 10:31:00,
2013-07-19 03:36:00,53.0,43.1,29.94,WSW,247,1.0,14.0,69,0.00,,,0.00,Weather View 32 v70,2013-07-19 10:36:00,
2013-07-19 03:41:00,53.0,43.5,29.94,WSW,247,2.0,14.0,70,0.00,,,0.00,Weather View 32 v70,2013-07-19 10:41:00,
2013-07-19 03:46:00,53.0,43.1,29.94,WSW,247,6.0,14.0,69,0.00,,,0.00,Weather View 32 v70,2013-07-19 10:46:00,
2013-07-19 03:51:00,53.0,43.1,29.94,WSW,247,1.0,14.0,69,0.00,,,0.00,Weather View 32 v70,2013-07-19 10:51:00,
2013-07-19 03:56:00,53.0,43.1,29.94,WSW,247,5.0,14.0,69,0.00,,,0.00,Weather View 32 v70,2013-07-19 10:56:00,
2013-07-19 04:01:00,53.0,43.1,29.94,WSW,247,0.0,14.0,69,0.00,,,0.00,Weather View 32 v70,2013-07-19 11:01:00,
2013-07-19 04:04:00,53.0,43.1,29.94,WSW,247,0.0,14.0,69,0.00,,,0.00,Weather View 32 v70,2013-07-19 11:04:00,
2013-07-19 04:06:00,53.0,43.1,29.94,WSW,247,6.0,14.0,69,0.00,,,0.00,Weather View 32 v70,2013-07-19 11:06:00,
2013-07-19 04:11:00,53.0,43.1,29.94,WSW,247,0.0,13.0,69,0.00,,,0.00,Weather View 32 v70,2013-07-19 11:11:00,
2013-07-19 04:16:00,53.0,43.5,29.94,WSW,247,3.0,13.0,70,0.00,,,0.00,Weather View 32 v70,2013-07-19 11:16:00,
2013-07-19 04:21:00,53.0,43.1,29.94,WSW,247,2.0,13.0,69,0.00,,,0.00,Weather View 32 v70,2013-07-19 11:21:00,
2013-07-19 04:26:00,53.0,43.1,29.95,WSW,247,0.0,13.0,69,0.00,,,0.00,Weather View 32 v70,2013-07-19 11:26:00,
2013-07-19 04:31:00,53.0,43.1,29.95,WSW,247,0.0,13.0,69,0.00,,,0.00,Weather View 32 v70,2013-07-19 11:31:00,
2013-07-19 04:36:00,53.0,43.1,29.95,WSW,247,0.0,13.0,69,0.00,,,0.00,Weather View 32 v70,2013-07-19 11:36:00,
2013-07-19 04:41:00,53.0,43.1,29.94,WSW,247,0.0,13.0,69,0.00,,,0.00,Weather View 32 v70,2013-07-19 11:41:00,
2013-07-19 04:51:00,53.0,43.5,29.94,WSW,247,0.0,9.0,70,0.00,,,0.00,Weather View 32 v70,2013-07-19 11:51:00,
2013-07-19 04:56:00,53.0,43.1,29.94,WSW,247,0.0,9.0,69,0.00,,,0.00,Weather View 32 v70,2013-07-19 11:56:00,
2013-07-19 05:01:00,53.0,43.1,29.94,WSW,247,0.0,9.0,69,0.00,,,0.00,Weather View 32 v70,2013-07-19 12:01:00,
2013-07-19 05:04:00,53.0,43.1,29.94,WSW,247,0.0,9.0,69,0.00,,,0.00,Weather View 32 v70,2013-07-19 12:04:00,
2013-07-19 05:06:00,53.0,43.1,29.94,WSW,247,0.0,9.0,69,0.00,,,0.00,Weather View 32 v70,2013-07-19 12:06:00,
2013-07-19 05:11:00,53.0,43.1,29.94,WSW,247,0.0,9.0,69,0.00,,,0.00,Weather View 32 v70,2013-07-19 12:11:00,
2013-07-19 05:16:00,53.0,43.1,29.94,WSW,247,0.0,10.0,69,0.00,,,0.00,Weather View 32 v70,2013-07-19 12:16:00,
2013-07-19 05:21:00,53.0,43.1,29.94,WSW,247,6.0,10.0,69,0.00,,,0.00,Weather View 32 v70,2013-07-19 12:21:00,
2013-07-19 05:26:00,53.0,43.5,29.94,WSW,247,0.0,10.0,70,0.00,,,0.00,Weather View 32 v70,2013-07-19 12:26:00,
2013-07-19 05:31:00,53.0,43.1,29.94,WSW,247,0.0,10.0,69,0.00,,,0.00,Weather View 32 v70,2013-07-19 12:31:00,
2013-07-19 05:36:00,53.0,43.1,29.94,WSW,247,0.0,10.0,69,0.00,,,0.00,Weather View 32 v70,2013-07-19 12:36:00,
2013-07-19 05:41:00,53.0,43.1,29.94,WSW,247,2.0,10.0,69,0.00,,,0.00,Weather View 32 v70,2013-07-19 12:41:00,
2013-07-19 05:46:00,53.0,43.5,29.94,WSW,247,4.0,10.0,70,0.00,,,0.00,Weather View 32 v70,2013-07-19 12:46:00,
2013-07-19 05:51:00,53.0,42.7,29.94,WSW,247,6.0,10.0,68,0.00,,,0.00,Weather View 32 v70,2013-07-19 12:51:00,
2013-07-19 05:56:00,53.0,42.3,29.94,WSW,247,5.0,11.0,67,0.00,,,0.00,Weather View 32 v70,2013-07-19 12:56:00,
2013-07-19 06:01:00,53.0,42.3,29.94,WSW,247,0.0,12.0,67,0.00,,,0.00,Weather View 32 v70,2013-07-19 13:01:00,
2013-07-19 06:05:00,53.0,42.3,29.94,WSW,247,0.0,12.0,67,0.00,,,0.00,Weather View 32 v70,2013-07-19 13:05:00,
2013-07-19 06:06:00,53.0,42.3,29.94,WSW,247,0.0,12.0,67,0.00,,,0.00,Weather View 32 v70,2013-07-19 13:06:00,
2013-07-19 06:11:00,53.0,41.9,29.94,WSW,247,0.0,13.0,66,0.00,,,0.00,Weather View 32 v70,2013-07-19 13:11:00,
2013-07-19 06:16:00,53.0,40.7,29.94,WSW,247,9.0,13.0,63,0.00,,,0.00,Weather View 32 v70,2013-07-19 13:16:00,
2013-07-19 06:21:00,53.0,41.5,29.94,WSW,247,2.0,13.0,65,0.00,,,0.00,Weather View 32 v70,2013-07-19 13:21:00,
2013-07-19 06:26:00,53.0,41.5,29.95,WSW,247,2.0,13.0,65,0.00,,,0.00,Weather View 32 v70,2013-07-19 13:26:00,
2013-07-19 06:31:00,53.0,41.5,29.95,WSW,247,6.0,13.0,65,0.00,,,0.00,Weather View 32 v70,2013-07-19 13:31:00,
2013-07-19 06:36:00,53.0,41.1,29.95,WSW,247,6.0,13.0,64,0.00,,,0.00,Weather View 32 v70,2013-07-19 13:36:00,
2013-07-19 06:41:00,53.0,41.1,29.95,WSW,247,10.0,13.0,64,0.00,,,0.00,Weather View 32 v70,2013-07-19 13:41:00,
2013-07-19 06:46:00,53.0,41.1,29.95,WSW,247,1.0,13.0,64,0.00,,,0.00,Weather View 32 v70,2013-07-19 13:46:00,
2013-07-19 06:51:00,53.0,33.8,29.95,WSW,247,0.0,13.0,48,0.00,,,0.00,Weather View 32 v70,2013-07-19 13:51:00,
2013-07-19 06:56:00,53.0,41.1,29.95,WSW,247,4.0,13.0,64,0.00,,,0.00,Weather View 32 v70,2013-07-19 13:56:00,
2013-07-19 07:01:00,53.0,41.1,29.95,WSW,247,3.0,13.0,64,0.00,,,0.00,Weather View 32 v70,2013-07-19 14:01:00,
2013-07-19 07:05:00,53.0,41.1,29.95,WSW,247,3.0,13.0,64,0.00,,,0.00,Weather View 32 v70,2013-07-19 14:05:00,
2013-07-19 07:06:00,53.0,40.7,29.95,WSW,247,6.0,13.0,63,0.00,,,0.00,Weather View 32 v70,2013-07-19 14:06:00,
2013-07-19 07:11:00,53.0,40.7,29.95,WSW,247,5.0,13.0,63,0.00,,,0.00,Weather View 32 v70,2013-07-19 14:11:00,
2013-07-19 07:16:00,53.0,40.7,29.95,WSW,247,0.0,13.0,63,0.00,,,0.00,Weather View 32 v70,2013-07-19 14:16:00,
2013-07-19 07:21:00,53.0,40.3,29.95,WSW,247,9.0,13.0,62,0.00,,,0.00,Weather View 32 v70,2013-07-19 14:21:00,
2013-07-19 07:26:00,53.0,20.7,29.95,WSW,247,6.0,15.0,28,0.00,,,0.00,Weather View 32 v70,2013-07-19 14:26:00,
2013-07-19 07:31:00,53.0,40.3,29.95,WSW,247,10.0,15.0,62,0.00,,,0.00,Weather View 32 v70,2013-07-19 14:31:00,
2013-07-19 07:37:00,53.0,40.3,29.95,WSW,247,1.0,15.0,62,0.00,,,0.00,Weather View 32 v70,2013-07-19 14:37:00,
2013-07-19 07:42:00,53.0,40.3,29.95,WSW,247,6.0,15.0,62,0.00,,,0.00,Weather View 32 v70,2013-07-19 14:42:00,
2013-07-19 07:47:00,53.0,-20.6,29.95,WSW,247,1.0,16.0,4,0.00,,,0.00,Weather View 32 v70,2013-07-19 14:47:00,
2013-07-19 07:52:00,53.0,39.9,29.95,WSW,247,7.0,16.0,61,0.00,,,0.00,Weather View 32 v70,2013-07-19 14:52:00,
2013-07-19 07:57:00,54.0,40.8,29.95,WSW,247,7.0,16.0,61,0.00,,,0.00,Weather View 32 v70,2013-07-19 14:57:00,
2013-07-19 08:02:00,54.0,40.8,29.95,WSW,247,9.0,16.0,61,0.00,,,0.00,Weather View 32 v70,2013-07-19 15:02:00,
2013-07-19 08:07:00,54.0,40.4,29.95,WSW,247,4.0,16.0,60,0.00,,,0.00,Weather View 32 v70,2013-07-19 15:07:00,
2013-07-19 08:12:00,54.0,40.4,29.95,WSW,247,0.0,16.0,60,0.00,,,0.00,Weather View 32 v70,2013-07-19 15:12:00,
2013-07-19 08:16:00,54.0,40.4,29.95,WSW,247,4.0,16.0,60,0.00,,,0.00,Weather View 32 v70,2013-07-19 15:16:00,
2013-07-19 08:21:00,54.0,-44.7,29.95,WSW,247,5.0,16.0,1,0.00,,,0.00,Weather View 32 v70,2013-07-19 15:21:00,
2013-07-19 08:26:00,54.0,40.4,29.95,WSW,247,6.0,16.0,60,0.00,,,0.00,Weather View 32 v70,2013-07-19 15:26:00,
2013-07-19 08:31:00,54.0,40.4,29.95,WSW,247,7.0,16.0,60,0.00,,,0.00,Weather View 32 v70,2013-07-19 15:31:00,
2013-07-19 08:36:00,54.0,40.4,29.95,WSW,247,7.0,16.0,60,0.00,,,0.00,Weather View 32 v70,2013-07-19 15:36:00,
2013-07-19 08:41:00,54.0,40.4,29.95,WSW,247,1.0,16.0,60,0.00,,,0.00,Weather View 32 v70,2013-07-19 15:41:00,
2013-07-19 08:46:00,55.0,40.5,29.95,WSW,247,8.0,13.0,58,0.00,,,0.00,Weather View 32 v70,2013-07-19 15:46:00,
2013-07-19 08:51:00,55.0,40.5,29.95,WSW,247,8.0,13.0,58,0.00,,,0.00,Weather View 32 v70,2013-07-19 15:51:00,
2013-07-19 08:56:00,55.0,-44.1,29.95,WSW,247,4.0,17.0,1,0.00,,,0.00,Weather View 32 v70,2013-07-19 15:56:00,
2013-07-19 09:01:00,55.0,40.5,29.95,WSW,247,10.0,17.0,58,0.00,,,0.00,Weather View 32 v70,2013-07-19 16:01:00,
2013-07-19 09:07:00,55.0,40.0,29.95,WSW,247,0.0,17.0,57,0.00,,,0.00,Weather View 32 v70,2013-07-19 16:07:00,
2013-07-19 09:11:00,56.0,40.5,29.94,WSW,247,2.0,17.0,56,0.00,,,0.00,Weather View 32 v70,2013-07-19 16:11:00,
2013-07-19 09:16:00,56.0,39.6,29.94,WSW,247,6.0,17.0,54,0.00,,,0.00,Weather View 32 v70,2013-07-19 16:16:00,
2013-07-19 09:21:00,56.0,38.6,29.95,WSW,247,3.0,17.0,52,0.00,,,0.00,Weather View 32 v70,2013-07-19 16:21:00,
2013-07-19 09:26:00,57.0,39.5,29.94,WSW,247,4.0,17.0,52,0.00,,,0.00,Weather View 32 v70,2013-07-19 16:26:00,
2013-07-19 09:31:00,58.0,-42.3,29.93,WSW,247,5.0,17.0,1,0.00,,,0.00,Weather View 32 v70,2013-07-19 16:31:00,
2013-07-19 09:36:00,58.0,40.4,29.93,WSW,247,4.0,17.0,52,0.00,,,0.00,Weather View 32 v70,2013-07-19 16:36:00,
2013-07-19 09:41:00,58.0,39.9,29.93,WSW,247,6.0,17.0,51,0.00,,,0.00,Weather View 32 v70,2013-07-19 16:41:00,
2013-07-19 09:46:00,58.0,39.9,29.93,WSW,247,0.0,17.0,51,0.00,,,0.00,Weather View 32 v70,2013-07-19 16:46:00,
2013-07-19 09:51:00,59.0,38.8,29.93,WSW,247,7.0,17.0,47,0.00,,,0.00,Weather View 32 v70,2013-07-19 16:51:00,
2013-07-19 09:56:00,59.0,40.9,29.93,WSW,247,11.0,16.0,51,0.00,,,0.00,Weather View 32 v70,2013-07-19 16:56:00,
2013-07-19 10:01:00,58.0,39.9,29.93,WSW,247,13.0,16.0,51,0.00,,,0.00,Weather View 32 v70,2013-07-19 17:01:00,
2013-07-19 10:06:00,58.0,-42.3,29.94,WSW,247,9.0,15.0,1,0.00,,,0.00,Weather View 32 v70,2013-07-19 17:06:00,
2013-07-19 10:07:00,58.0,-42.3,29.94,WSW,247,9.0,15.0,1,0.00,,,0.00,Weather View 32 v70,2013-07-19 17:07:00,
2013-07-19 10:11:00,58.0,40.4,29.94,WSW,247,10.0,15.0,52,0.00,,,0.00,Weather View 32 v70,2013-07-19 17:11:00,
2013-07-19 10:16:00,58.0,40.4,29.94,WSW,247,4.0,15.0,52,0.00,,,0.00,Weather View 32 v70,2013-07-19 17:16:00,
2013-07-19 10:21:00,59.0,41.4,29.94,WSW,247,3.0,15.0,52,0.00,,,0.00,Weather View 32 v70,2013-07-19 17:21:00,
2013-07-19 10:26:00,59.0,41.4,29.94,WSW,247,8.0,15.0,52,0.00,,,0.00,Weather View 32 v70,2013-07-19 17:26:00,
2013-07-19 10:31:00,59.0,40.9,29.94,WSW,247,6.0,15.0,51,0.00,,,0.00,Weather View 32 v70,2013-07-19 17:31:00,
2013-07-19 10:36:00,60.0,41.8,29.94,WSW,247,6.0,15.0,51,0.00,,,0.00,Weather View 32 v70,2013-07-19 17:36:00,
2013-07-19 10:41:00,60.0,41.3,29.94,WSW,247,3.0,15.0,50,0.00,,,0.00,Weather View 32 v70,2013-07-19 17:41:00,
2013-07-19 10:46:00,60.0,39.7,29.93,WSW,247,16.0,16.0,47,0.00,,,0.00,Weather View 32 v70,2013-07-19 17:46:00,
2013-07-19 10:51:00,60.0,40.2,29.93,SW,225,6.0,17.0,48,0.00,,,0.00,Weather View 32 v70,2013-07-19 17:51:00,
2013-07-19 10:56:00,60.0,-41.1,29.93,SW,225,7.0,17.0,1,0.00,,,0.00,Weather View 32 v70,2013-07-19 17:56:00,
2013-07-19 11:01:00,59.0,39.8,29.93,SW,225,3.0,17.0,49,0.00,,,0.00,Weather View 32 v70,2013-07-19 18:01:00,
2013-07-19 11:06:00,60.0,41.3,29.93,SW,225,6.0,17.0,50,0.00,,,0.00,Weather View 32 v70,2013-07-19 18:06:00,
2013-07-19 11:07:00,60.0,41.3,29.93,SW,225,6.0,17.0,50,0.00,,,0.00,Weather View 32 v70,2013-07-19 18:07:00,
2013-07-19 11:11:00,59.0,38.8,29.93,SW,225,7.0,17.0,47,0.00,,,0.00,Weather View 32 v70,2013-07-19 18:11:00,
2013-07-19 11:16:00,59.0,41.4,29.93,SW,225,4.0,17.0,52,0.00,,,0.00,Weather View 32 v70,2013-07-19 18:16:00,
2013-07-19 11:21:00,59.0,40.3,29.93,SW,225,9.0,17.0,50,0.00,,,0.00,Weather View 32 v70,2013-07-19 18:21:00,
2013-07-19 11:26:00,60.0,39.1,29.93,SW,225,6.0,17.0,46,0.00,,,0.00,Weather View 32 v70,2013-07-19 18:26:00,
2013-07-19 11:31:00,60.0,-41.1,29.93,SW,225,10.0,17.0,1,0.00,,,0.00,Weather View 32 v70,2013-07-19 18:31:00,
2013-07-19 11:36:00,60.0,41.3,29.93,SW,225,8.0,17.0,50,0.00,,,0.00,Weather View 32 v70,2013-07-19 18:36:00,
2013-07-19 11:41:00,60.0,41.8,29.93,SW,225,4.0,17.0,51,0.00,,,0.00,Weather View 32 v70,2013-07-19 18:41:00,
2013-07-19 11:51:00,60.0,40.7,29.93,SW,225,7.0,18.0,49,0.00,,,0.00,Weather View 32 v70,2013-07-19 18:51:00,
2013-07-19 11:56:00,61.0,42.7,29.93,SW,225,10.0,19.0,51,0.00,,,0.00,Weather View 32 v70,2013-07-19 18:56:00,
2013-07-19 12:06:00,61.0,-40.5,29.93,SW,225,10.0,19.0,1,0.00,,,0.00,Weather View 32 v70,2013-07-19 19:06:00,
2013-07-19 12:08:00,61.0,-40.5,29.93,SW,225,10.0,19.0,1,0.00,,,0.00,Weather View 32 v70,2013-07-19 19:08:00,
2013-07-19 12:11:00,61.0,43.7,29.93,SW,225,9.0,19.0,53,0.00,,,0.00,Weather View 32 v70,2013-07-19 19:11:00,
2013-07-19 12:16:00,61.0,43.7,29.92,SW,225,9.0,19.0,53,0.00,,,0.00,Weather View 32 v70,2013-07-19 19:16:00,
2013-07-19 12:21:00,60.0,43.7,29.93,WSW,247,12.0,20.0,55,0.00,,,0.00,Weather View 32 v70,2013-07-19 19:21:00,
2013-07-19 12:26:00,60.0,42.3,29.93,SW,225,9.0,20.0,52,0.00,,,0.00,Weather View 32 v70,2013-07-19 19:26:00,
2013-07-19 12:31:00,60.0,41.8,29.92,SW,225,7.0,20.0,51,0.00,,,0.00,Weather View 32 v70,2013-07-19 19:31:00,
2013-07-19 12:37:00,61.0,42.2,29.91,SW,225,3.0,20.0,50,0.00,,,0.00,Weather View 32 v70,2013-07-19 19:37:00,
2013-07-19 12:42:00,61.0,42.7,29.91,SW,225,11.0,20.0,51,0.00,,,0.00,Weather View 32 v70,2013-07-19 19:42:00,
2013-07-19 12:52:00,61.0,43.2,29.91,SW,225,9.0,20.0,52,0.00,,,0.00,Weather View 32 v70,2013-07-19 19:52:00,
2013-07-19 12:57:00,61.0,42.2,29.91,SW,225,6.0,20.0,50,0.00,,,0.00,Weather View 32 v70,2013-07-19 19:57:00,
2013-07-19 13:06:00,62.0,42.6,29.91,SW,225,12.0,20.0,49,0.00,,,0.00,Weather View 32 v70,2013-07-19 20:06:00,
2013-07-19 13:09:00,62.0,42.6,29.91,SW,225,12.0,20.0,49,0.00,,,0.00,Weather View 32 v70,2013-07-19 20:09:00,
2013-07-19 13:11:00,61.0,42.2,29.91,SW,225,6.0,20.0,50,0.00,,,0.00,Weather View 32 v70,2013-07-19 20:11:00,
2013-07-19 13:16:00,61.0,43.2,29.91,SW,225,4.0,20.0,52,0.00,,,0.00,Weather View 32 v70,2013-07-19 20:16:00,
2013-07-19 13:21:00,61.0,41.7,29.91,SW,225,16.0,20.0,49,0.00,,,0.00,Weather View 32 v70,2013-07-19 20:21:00,
2013-07-19 13:26:00,61.0,42.2,29.90,SW,225,10.0,20.0,50,0.00,,,0.00,Weather View 32 v70,2013-07-19 20:26:00,
2013-07-19 13:31:00,61.0,42.2,29.90,WSW,247,6.0,20.0,50,0.00,,,0.00,Weather View 32 v70,2013-07-19 20:31:00,
2013-07-19 13:36:00,61.0,-40.5,29.90,SW,225,7.0,22.0,1,0.00,,,0.00,Weather View 32 v70,2013-07-19 20:36:00,
2013-07-19 13:41:00,61.0,42.2,29.90,SW,225,7.0,22.0,50,0.00,,,0.00,Weather View 32 v70,2013-07-19 20:41:00,
2013-07-19 13:46:00,62.0,42.0,29.89,SW,225,5.0,22.0,48,0.00,,,0.00,Weather View 32 v70,2013-07-19 20:46:00,
2013-07-19 13:51:00,62.0,42.0,29.89,SW,225,6.0,22.0,48,0.00,,,0.00,Weather View 32 v70,2013-07-19 20:51:00,
2013-07-19 13:56:00,62.0,41.5,29.89,SW,225,10.0,22.0,47,0.00,,,0.00,Weather View 32 v70,2013-07-19 20:56:00,
2013-07-19 14:01:00,62.0,44.6,29.89,SW,225,6.0,22.0,53,0.00,,,0.00,Weather View 32 v70,2013-07-19 21:01:00,
2013-07-19 14:06:00,62.0,45.1,29.89,SW,225,7.0,22.0,54,0.00,,,0.00,Weather View 32 v70,2013-07-19 21:06:00,
2013-07-19 14:10:00,62.0,45.1,29.89,SW,225,7.0,22.0,54,0.00,,,0.00,Weather View 32 v70,2013-07-19 21:10:00,
2013-07-19 14:11:00,61.0,-40.5,29.89,SW,225,7.0,22.0,1,0.00,,,0.00,Weather View 32 v70,2013-07-19 21:11:00,
2013-07-19 14:16:00,61.0,40.6,29.89,SW,225,10.0,22.0,47,0.00,,,0.00,Weather View 32 v70,2013-07-19 21:16:00,
2013-07-19 14:21:00,62.0,45.6,29.89,SW,225,3.0,22.0,55,0.00,,,0.00,Weather View 32 v70,2013-07-19 21:21:00,
2013-07-19 14:26:00,61.0,39.5,29.89,WSW,247,7.0,23.0,45,0.00,,,0.00,Weather View 32 v70,2013-07-19 21:26:00,
2013-07-19 14:31:00,61.0,41.1,29.89,SW,225,13.0,23.0,48,0.00,,,0.00,Weather View 32 v70,2013-07-19 21:31:00,
2013-07-19 14:36:00,62.0,46.1,29.89,SW,225,5.0,23.0,56,0.00,,,0.00,Weather View 32 v70,2013-07-19 21:36:00,
2013-07-19 14:41:00,62.0,43.6,29.89,WSW,247,9.0,23.0,51,0.00,,,0.00,Weather View 32 v70,2013-07-19 21:41:00,
2013-07-19 14:46:00,62.0,-39.9,29.88,SW,225,9.0,24.0,1,0.00,,,0.00,Weather View 32 v70,2013-07-19 21:46:00,
2013-07-19 14:51:00,62.0,39.8,29.88,WSW,247,7.0,24.0,44,0.00,,,0.00,Weather View 32 v70,2013-07-19 21:51:00,
2013-07-19 14:56:00,62.0,42.0,29.88,WSW,247,10.0,24.0,48,0.00,,,0.00,Weather View 32 v70,2013-07-19 21:56:00,
2013-07-19 15:01:00,62.0,41.5,29.88,SW,225,8.0,24.0,47,0.00,,,0.00,Weather View 32 v70,2013-07-19 22:01:00,
2013-07-19 15:06:00,62.0,39.8,29.88,WSW,247,4.0,24.0,44,0.00,,,0.00,Weather View 32 v70,2013-07-19 22:06:00,
2013-07-19 15:10:00,62.0,39.8,29.88,WSW,247,4.0,24.0,44,0.00,,,0.00,Weather View 32 v70,2013-07-19 22:10:00,
2013-07-19 15:11:00,62.0,38.6,29.88,WSW,247,0.0,24.0,42,0.00,,,0.00,Weather View 32 v70,2013-07-19 22:11:00,
2013-07-19 15:16:00,62.0,46.1,29.88,WSW,247,7.0,24.0,56,0.00,,,0.00,Weather View 32 v70,2013-07-19 22:16:00,
2013-07-19 15:21:00,63.0,-39.3,29.87,WSW,247,5.0,24.0,1,0.00,,,0.00,Weather View 32 v70,2013-07-19 22:21:00,
2013-07-19 15:26:00,62.0,42.0,29.87,WSW,247,12.0,24.0,48,0.00,,,0.00,Weather View 32 v70,2013-07-19 22:26:00,
2013-07-19 15:31:00,63.0,44.0,29.87,SW,225,13.0,24.0,50,0.00,,,0.00,Weather View 32 v70,2013-07-19 22:31:00,
2013-07-19 15:36:00,63.0,-39.3,29.87,SW,225,16.0,24.0,1,0.00,,,0.00,Weather View 32 v70,2013-07-19 22:36:00,
2013-07-19 15:41:00,62.0,39.2,29.87,SW,225,12.0,24.0,43,0.00,,,0.00,Weather View 32 v70,2013-07-19 22:41:00,
2013-07-19 15:46:00,62.0,41.5,29.87,SW,225,10.0,21.0,47,0.00,,,0.00,Weather View 32 v70,2013-07-19 22:46:00,
2013-07-19 15:51:00,62.0,37.3,29.87,WSW,247,6.0,21.0,40,0.00,,,0.00,Weather View 32 v70,2013-07-19 22:51:00,
2013-07-19 15:56:00,62.0,44.6,29.87,WSW,247,8.0,21.0,53,0.00,,,0.00,Weather View 32 v70,2013-07-19 22:56:00,
2013-07-19 16:01:00,62.0,39.8,29.87,SW,225,9.0,22.0,44,0.00,,,0.00,Weather View 32 v70,2013-07-19 23:01:00,
2013-07-19 16:06:00,62.0,41.5,29.87,WSW,247,0.0,22.0,47,0.00,,,0.00,Weather View 32 v70,2013-07-19 23:06:00,
2013-07-19 16:10:00,62.0,41.5,29.87,WSW,247,0.0,22.0,47,0.00,,,0.00,Weather View 32 v70,2013-07-19 23:10:00,
2013-07-19 16:11:00,63.0,-39.3,29.86,WSW,247,5.0,22.0,1,0.00,,,0.00,Weather View 32 v70,2013-07-19 23:11:00,
2013-07-19 16:16:00,63.0,38.9,29.86,SW,225,13.0,22.0,41,0.00,,,0.00,Weather View 32 v70,2013-07-19 23:16:00,
2013-07-19 16:21:00,63.0,37.6,29.86,SW,225,10.0,22.0,39,0.00,,,0.00,Weather View 32 v70,2013-07-19 23:21:00,
2013-07-19 16:26:00,63.0,39.5,29.86,SW,225,6.0,22.0,42,0.00,,,0.00,Weather View 32 v70,2013-07-19 23:26:00,
2013-07-19 16:31:00,62.0,36.7,29.86,WSW,247,0.0,22.0,39,0.00,,,0.00,Weather View 32 v70,2013-07-19 23:31:00,
2013-07-19 16:36:00,62.0,38.0,29.87,SW,225,9.0,22.0,41,0.00,,,0.00,Weather View 32 v70,2013-07-19 23:36:00,
2013-07-19 16:41:00,62.0,36.0,29.87,SW,225,1.0,22.0,38,0.00,,,0.00,Weather View 32 v70,2013-07-19 23:41:00,
2013-07-19 16:46:00,62.0,-39.9,29.86,WSW,247,2.0,22.0,1,0.00,,,0.00,Weather View 32 v70,2013-07-19 23:46:00,
2013-07-19 16:51:00,62.0,35.4,29.86,SW,225,10.0,22.0,37,0.00,,,0.00,Weather View 32 v70,2013-07-19 23:51:00,
2013-07-19 16:56:00,61.0,35.2,29.86,WSW,247,3.0,22.0,38,0.00,,,0.00,Weather View 32 v70,2013-07-19 23:56:00,
2013-07-19 17:01:00,61.0,35.2,29.86,SW,225,6.0,20.0,38,0.00,,,0.00,Weather View 32 v70,2013-07-20 00:01:00,
2013-07-19 17:06:00,61.0,35.2,29.86,SW,225,6.0,20.0,38,0.00,,,0.00,Weather View 32 v70,2013-07-20 00:06:00,
2013-07-19 17:11:00,61.0,35.2,29.86,SW,225,6.0,20.0,38,0.00,,,0.00,Weather View 32 v70,2013-07-20 00:11:00,
2013-07-19 17:16:00,61.0,35.2,29.86,SW,225,10.0,20.0,38,0.00,,,0.00,Weather View 32 v70,2013-07-20 00:16:00,
2013-07-19 17:21:00,62.0,-39.9,29.86,SW,225,3.0,20.0,1,0.00,,,0.00,Weather View 32 v70,2013-07-20 00:21:00,
2013-07-19 17:26:00,61.0,34.5,29.86,SW,225,7.0,20.0,37,0.00,,,0.00,Weather View 32 v70,2013-07-20 00:26:00,
2013-07-19 17:31:00,61.0,35.2,29.86,WSW,247,6.0,20.0,38,0.00,,,0.00,Weather View 32 v70,2013-07-20 00:31:00,
2013-07-19 17:37:00,61.0,33.1,29.86,WSW,247,10.0,20.0,35,0.00,,,0.00,Weather View 32 v70,2013-07-20 00:37:00,
2013-07-19 17:42:00,62.0,-39.9,29.85,SW,225,10.0,19.0,1,0.00,,,0.00,Weather View 32 v70,2013-07-20 00:42:00,
2013-07-19 17:47:00,62.0,34.0,29.85,SW,225,7.0,20.0,35,0.00,,,0.00,Weather View 32 v70,2013-07-20 00:47:00,
2013-07-19 17:52:00,61.0,40.6,29.86,SW,225,1.0,20.0,47,0.00,,,0.00,Weather View 32 v70,2013-07-20 00:52:00,
2013-07-19 17:57:00,61.0,33.1,29.86,SW,225,0.0,20.0,35,0.00,,,0.00,Weather View 32 v70,2013-07-20 00:57:00,
2013-07-19 18:02:00,60.0,36.8,29.86,WSW,247,10.0,20.0,42,0.00,,,0.00,Weather View 32 v70,2013-07-20 01:02:00,
2013-07-19 18:06:00,60.0,36.2,29.85,WSW,247,3.0,20.0,41,0.00,,,0.00,Weather View 32 v70,2013-07-20 01:06:00,
2013-07-19 18:12:00,60.0,40.7,29.85,SW,225,0.0,20.0,49,0.00,,,0.00,Weather View 32 v70,2013-07-20 01:12:00,
2013-07-19 18:17:00,60.0,-41.1,29.85,WSW,247,0.0,20.0,1,0.00,,,0.00,Weather View 32 v70,2013-07-20 01:17:00,
2013-07-19 18:22:00,60.0,40.7,29.85,SW,225,6.0,20.0,49,0.00,,,0.00,Weather View 32 v70,2013-07-20 01:22:00,
2013-07-19 18:26:00,60.0,38.5,29.85,WSW,247,0.0,20.0,45,0.00,,,0.00,Weather View 32 v70,2013-07-20 01:26:00,
2013-07-19 18:31:00,60.0,34.9,29.85,SW,225,7.0,20.0,39,0.00,,,0.00,Weather View 32 v70,2013-07-20 01:31:00,
2013-07-19 18:36:00,60.0,42.3,29.85,SW,225,4.0,20.0,52,0.00,,,0.00,Weather View 32 v70,2013-07-20 01:36:00,
2013-07-19 18:41:00,59.0,41.4,29.85,SW,225,0.0,20.0,52,0.00,,,0.00,Weather View 32 v70,2013-07-20 01:41:00,
2013-07-19 18:46:00,59.0,41.4,29.86,WSW,247,5.0,17.0,52,0.00,,,0.00,Weather View 32 v70,2013-07-20 01:46:00,
2013-07-19 18:51:00,59.0,-41.7,29.86,SW,225,0.0,17.0,1,0.00,,,0.00,Weather View 32 v70,2013-07-20 01:51:00,
2013-07-19 18:56:00,58.0,41.9,29.86,WSW,247,0.0,16.0,55,0.00,,,0.00,Weather View 32 v70,2013-07-20 01:56:00,
2013-07-19 19:01:00,58.0,42.4,29.86,WSW,247,8.0,16.0,56,0.00,,,0.00,Weather View 32 v70,2013-07-20 02:01:00,
2013-07-19 19:06:00,58.0,42.8,29.86,WSW,247,2.0,16.0,57,0.00,,,0.00,Weather View 32 v70,2013-07-20 02:06:00,
2013-07-19 19:11:00,57.0,41.9,29.86,WSW,247,0.0,16.0,57,0.00,,,0.00,Weather View 32 v70,2013-07-20 02:11:00,
2013-07-19 19:12:00,57.0,41.9,29.86,WSW,247,0.0,16.0,57,0.00,,,0.00,Weather View 32 v70,2013-07-20 02:12:00,
2013-07-19 19:16:00,56.0,41.4,29.87,WSW,247,0.0,16.0,58,0.00,,,0.00,Weather View 32 v70,2013-07-20 02:16:00,
2013-07-19 19:21:00,56.0,42.3,29.87,WSW,247,0.0,16.0,60,0.00,,,0.00,Weather View 32 v70,2013-07-20 02:21:00,
2013-07-19 19:26:00,56.0,-43.5,29.87,WSW,247,0.0,16.0,1,0.00,,,0.00,Weather View 32 v70,2013-07-20 02:26:00,
2013-07-19 19:31:00,56.0,42.3,29.87,WSW,247,0.0,16.0,60,0.00,,,0.00,Weather View 32 v70,2013-07-20 02:31:00,
2013-07-19 19:36:00,55.0,41.8,29.87,WSW,247,4.0,16.0,61,0.00,,,0.00,Weather View 32 v70,2013-07-20 02:36:00,
2013-07-19 19:41:00,55.0,41.8,29.87,WSW,247,3.0,16.0,61,0.00,,,0.00,Weather View 32 v70,2013-07-20 02:41:00,
2013-07-19 19:51:00,55.0,42.2,29.88,WSW,247,7.0,16.0,62,0.00,,,0.00,Weather View 32 v70,2013-07-20 02:51:00,
2013-07-19 19:56:00,55.0,42.2,29.87,WSW,247,0.0,14.0,62,0.00,,,0.00,Weather View 32 v70,2013-07-20 02:56:00,
2013-07-19 20:01:00,55.0,31.1,29.87,WSW,247,2.0,14.0,40,0.00,,,0.00,Weather View 32 v70,2013-07-20 03:01:00,
2013-07-19 20:06:00,55.0,42.6,29.87,WSW,247,1.0,14.0,63,0.00,,,0.00,Weather View 32 v70,2013-07-20 03:06:00,
2013-07-19 20:11:00,54.0,42.1,29.87,WSW,247,3.0,14.0,64,0.00,,,0.00,Weather View 32 v70,2013-07-20 03:11:00,
2013-07-19 20:13:00,54.0,42.1,29.87,WSW,247,3.0,14.0,64,0.00,,,0.00,Weather View 32 v70,2013-07-20 03:13:00,
2013-07-19 20:21:00,54.0,42.5,29.88,WSW,247,0.0,14.0,65,0.00,,,0.00,Weather View 32 v70,2013-07-20 03:21:00,
2013-07-19 20:26:00,54.0,42.5,29.88,WSW,247,0.0,14.0,65,0.00,,,0.00,Weather View 32 v70,2013-07-20 03:26:00,
2013-07-19 20:31:00,54.0,42.5,29.89,WSW,247,0.0,14.0,65,0.00,,,0.00,Weather View 32 v70,2013-07-20 03:31:00,
2013-07-19 20:36:00,54.0,42.9,29.89,WSW,247,5.0,14.0,66,0.00,,,0.00,Weather View 32 v70,2013-07-20 03:36:00,
2013-07-19 20:41:00,54.0,43.3,29.89,WSW,247,1.0,14.0,67,0.00,,,0.00,Weather View 32 v70,2013-07-20 03:41:00,
2013-07-19 20:46:00,54.0,43.3,29.89,WSW,247,0.0,14.0,67,0.00,,,0.00,Weather View 32 v70,2013-07-20 03:46:00,
2013-07-19 20:51:00,54.0,43.7,29.89,WSW,247,0.0,14.0,68,0.00,,,0.00,Weather View 32 v70,2013-07-20 03:51:00,
2013-07-19 20:56:00,54.0,44.0,29.89,WSW,247,3.0,14.0,69,0.00,,,0.00,Weather View 32 v70,2013-07-20 03:56:00,
2013-07-19 21:01:00,54.0,44.0,29.89,WSW,247,2.0,14.0,69,0.00,,,0.00,Weather View 32 v70,2013-07-20 04:01:00,
2013-07-19 21:06:00,54.0,44.4,29.89,WSW,247,5.0,14.0,70,0.00,,,0.00,Weather View 32 v70,2013-07-20 04:06:00,
2013-07-19 21:11:00,54.0,44.8,29.89,WSW,247,0.0,11.0,71,0.00,,,0.00,Weather View 32 v70,2013-07-20 04:11:00,
2013-07-19 21:13:00,54.0,44.8,29.89,WSW,247,0.0,11.0,71,0.00,,,0.00,Weather View 32 v70,2013-07-20 04:13:00,
2013-07-19 21:21:00,54.0,45.2,29.89,WSW,247,1.0,12.0,72,0.00,,,0.00,Weather View 32 v70,2013-07-20 04:21:00,
2013-07-19 21:26:00,54.0,45.5,29.89,WSW,247,0.0,12.0,73,0.00,,,0.00,Weather View 32 v70,2013-07-20 04:26:00,
2013-07-19 21:31:00,53.0,44.6,29.89,WSW,247,2.0,12.0,73,0.00,,,0.00,Weather View 32 v70,2013-07-20 04:31:00,
2013-07-19 21:36:00,53.0,44.9,29.90,WSW,247,0.0,12.0,74,0.00,,,0.00,Weather View 32 v70,2013-07-20 04:36:00,
2013-07-19 21:41:00,53.0,45.3,29.90,WSW,247,0.0,17.0,75,0.00,,,0.00,Weather View 32 v70,2013-07-20 04:41:00,
2013-07-19 21:51:00,53.0,45.6,29.90,WSW,247,0.0,17.0,76,0.00,,,0.00,Weather View 32 v70,2013-07-20 04:51:00,
2013-07-19 21:56:00,53.0,46.0,29.90,WSW,247,5.0,17.0,77,0.00,,,0.00,Weather View 32 v70,2013-07-20 04:56:00,
2013-07-19 22:01:00,53.0,46.0,29.90,WSW,247,5.0,17.0,77,0.00,,,0.00,Weather View 32 v70,2013-07-20 05:01:00,
2013-07-19 22:06:00,53.0,46.0,29.90,WSW,247,0.0,17.0,77,0.00,,,0.00,Weather View 32 v70,2013-07-20 05:06:00,
2013-07-19 22:11:00,53.0,46.3,29.90,WSW,247,0.0,17.0,78,0.00,,,0.00,Weather View 32 v70,2013-07-20 05:11:00,
2013-07-19 22:16:00,53.0,46.3,29.91,WSW,247,0.0,17.0,78,0.00,,,0.00,Weather View 32 v70,2013-07-20 05:16:00,
2013-07-19 22:21:00,53.0,46.3,29.91,WSW,247,4.0,17.0,78,0.00,,,0.00,Weather View 32 v70,2013-07-20 05:21:00,
2013-07-19 22:26:00,53.0,46.3,29.91,WSW,247,5.0,17.0,78,0.00,,,0.00,Weather View 32 v70,2013-07-20 05:26:00,
2013-07-19 22:31:00,53.0,46.6,29.91,WSW,247,0.0,17.0,79,0.00,,,0.00,Weather View 32 v70,2013-07-20 05:31:00,
2013-07-19 22:32:00,53.0,46.6,29.91,WSW,247,0.0,17.0,79,0.00,,,0.00,Weather View 32 v70,2013-07-20 05:32:00,
2013-07-19 22:37:00,53.0,46.6,29.91,WSW,247,2.0,17.0,79,0.00,,,0.00,Weather View 32 v70,2013-07-20 05:37:00,
2013-07-19 22:42:00,53.0,46.6,29.91,WSW,247,0.0,13.0,79,0.00,,,0.00,Weather View 32 v70,2013-07-20 05:42:00,
2013-07-19 22:47:00,53.0,46.6,29.90,WSW,247,0.0,13.0,79,0.00,,,0.00,Weather View 32 v70,2013-07-20 05:47:00,
2013-07-19 22:52:00,53.0,46.6,29.90,WSW,247,3.0,13.0,79,0.00,,,0.00,Weather View 32 v70,2013-07-20 05:52:00,
2013-07-19 22:57:00,53.0,46.6,29.90,WSW,247,4.0,13.0,79,0.00,,,0.00,Weather View 32 v70,2013-07-20 05:57:00,
2013-07-19 23:01:00,53.0,46.6,29.90,WSW,247,1.0,13.0,79,0.00,,,0.00,Weather View 32 v70,2013-07-20 06:01:00,
2013-07-19 23:06:00,53.0,46.3,29.90,WSW,247,8.0,13.0,78,0.00,,,0.00,Weather View 32 v70,2013-07-20 06:06:00,
2013-07-19 23:11:00,53.0,46.3,29.90,WSW,247,2.0,13.0,78,0.00,,,0.00,Weather View 32 v70,2013-07-20 06:11:00,
2013-07-19 23:15:00,53.0,46.3,29.90,WSW,247,2.0,13.0,78,0.00,,,0.00,Weather View 32 v70,2013-07-20 06:15:00,
2013-07-19 23:16:00,53.0,46.0,29.90,WSW,247,7.0,14.0,77,0.00,,,0.00,Weather View 32 v70,2013-07-20 06:16:00,
2013-07-19 23:21:00,53.0,45.3,29.90,WSW,247,6.0,14.0,75,0.00,,,0.00,Weather View 32 v70,2013-07-20 06:21:00,
2013-07-19 23:26:00,53.0,44.9,29.89,WSW,247,1.0,14.0,74,0.00,,,0.00,Weather View 32 v70,2013-07-20 06:26:00,
2013-07-19 23:31:00,53.0,44.2,29.90,WSW,247,7.0,14.0,72,0.00,,,0.00,Weather View 32 v70,2013-07-20 06:31:00,
2013-07-19 23:36:00,53.0,43.8,29.90,WSW,247,2.0,14.0,71,0.00,,,0.00,Weather View 32 v70,2013-07-20 06:36:00,
2013-07-19 23:41:00,53.0,43.5,29.89,WSW,247,2.0,14.0,70,0.00,,,0.00,Weather View 32 v70,2013-07-20 06:41:00,
2013-07-19 23:51:00,53.0,43.1,29.90,WSW,247,5.0,14.0,69,0.00,,,0.00,Weather View 32 v70,2013-07-20 06:51:00,
2013-07-19 23:57:00,53.0,43.1,29.90,WSW,247,2.0,14.0,69,0.00,,,0.00,Weather View 32 v70,2013-07-20 06:57:00,